Weather History for Rutland, VT

Change the Weather History Date:

Sunday, May 27, 2012

  Actual Average Record
Temperature  
Mean Temperature 66 °F -  
Max Temperature 79 °F - 90 °F (1978)
Min Temperature 52 °F - 29 °F (1969)
Degree Days  
Heating Degree Days 0    
Month to date heating degree days 182  
Since 1 July heating degree days 5979  
Cooling Degree Days 1    
Month to date cooling degree days 16  
Year to date cooling degree days 24  
Growing Degree Days 14 (Base 50)    
Moisture  
Dew Point 48 °F    
Average Humidity 57    
Maximum Humidity 77    
Minimum Humidity 36    
Precipitation  
Precipitation 0.00 in - 1.23 in (1956)
Month to date precipitation 2.24  
Year to date precipitation 6.88  
Sea Level Pressure  
Sea Level Pressure 30.11 in    
Wind  
Wind Speed 4 mph (ENE)    
Max Wind Speed 9 mph    
Max Gust Speed -    
Visibility 10 miles    
Events      
T = Trace of Precipitation, MM = Missing Value Source: NWS Daily Summary

Daily Weather History Graph

Daily Weather History Graph

Search for Another Location

Airport:

Trip Planner

Search our weather history database for the weather conditions in past years. The results will help you decide how hot, cold, wet, or windy it might be!

Date:

Astronomy

May. 27, 2012 Rise Set
Actual Time 5:16 AM EDT 8:22 PM EDT
Civil Twilight 4:41 AM EDT 8:56 PM EDT
Nautical Twilight 3:57 AM EDT 9:41 PM EDT
Astronomical Twilight 3:04 AM EDT 10:34 PM EDT
Moon 11:25 AM EDT (5/27) 12:21 AM EDT (5/27)
Length of Visible Light 16h 15m
Length of Day
15h 06m
Waxing Crescent, 38% of the Moon is Illuminated
May 27
Waxing Crescent
May 28
First Quarter
Jun 4
Full
Jun 11
Last Quarter
Jun 19
New

Hourly Weather History & Observations

Time (EDT) Temp. Dew Point Humidity Pressure Visibility Wind Dir Wind Speed Gust Speed Precip Events Conditions
12:15 AM 59.0 °F 48.2 °F 67% 30.15 in 10.0 mi Calm Calm - N/A   Clear
12:35 AM 57.2 °F 48.2 °F 72% 30.15 in 10.0 mi SE 4.6 mph - N/A   Clear
12:55 AM 57.2 °F 48.2 °F 72% 30.15 in 10.0 mi SE 3.5 mph - N/A   Clear
1:15 AM 57.2 °F 48.2 °F 72% 30.15 in 10.0 mi SE 6.9 mph - N/A   Clear
1:35 AM 57.2 °F 48.2 °F 72% 30.15 in 10.0 mi SE 9.2 mph - N/A   Clear
1:55 AM 55.4 °F 48.2 °F 77% 30.15 in 10.0 mi ESE 4.6 mph - N/A   Clear
2:35 AM 55.4 °F 46.4 °F 72% 30.15 in 10.0 mi ESE 9.2 mph - N/A   Clear
2:55 AM 55.4 °F 46.4 °F 72% 30.15 in 10.0 mi SSE 6.9 mph - N/A   Clear
3:15 AM 53.6 °F 46.4 °F 77% 30.15 in 10.0 mi SE 6.9 mph - N/A   Clear
3:35 AM 53.6 °F 46.4 °F 77% 30.16 in 10.0 mi SE 10.4 mph - N/A   Clear
4:15 AM 53.6 °F 46.4 °F 77% 30.16 in 10.0 mi SE 6.9 mph - N/A   Clear
4:55 AM 53.6 °F 46.4 °F 77% 30.18 in 10.0 mi ESE 5.8 mph - N/A   Clear
5:15 AM 53.6 °F 44.6 °F 72% 30.19 in 10.0 mi ESE 5.8 mph - N/A   Clear
5:35 AM 51.8 °F 44.6 °F 76% 30.20 in 10.0 mi NE 3.5 mph - N/A   Clear
5:55 AM 51.8 °F 44.6 °F 76% 30.20 in 10.0 mi ESE 9.2 mph - N/A   Clear
6:15 AM 51.8 °F 44.6 °F 76% 30.20 in 10.0 mi SE 8.1 mph - N/A   Clear
6:35 AM 53.6 °F 46.4 °F 77% 30.21 in 10.0 mi SSE 4.6 mph - N/A   Clear
6:55 AM 53.6 °F 46.4 °F 77% 30.21 in 10.0 mi ESE 5.8 mph - N/A   Clear
7:35 AM 57.2 °F 46.4 °F 67% 30.21 in 10.0 mi Calm Calm - N/A   Clear
7:55 AM 57.2 °F 48.2 °F 72% 30.20 in 10.0 mi Calm Calm - N/A   Clear
8:15 AM 59.0 °F 48.2 °F 67% 30.20 in 10.0 mi Calm Calm - N/A   Clear
8:35 AM 60.8 °F 48.2 °F 63% 30.20 in 10.0 mi Calm Calm - N/A   Clear
10:55 AM 71.6 °F 46.4 °F 41% 30.17 in 10.0 mi North 3.5 mph - N/A   Unknown
11:35 AM 73.4 °F 50.0 °F 44% 30.15 in 10.0 mi North 5.8 mph - N/A   Clear
11:55 AM 73.4 °F 48.2 °F 41% 30.15 in 10.0 mi NNE 6.9 mph - N/A   Clear
12:15 PM 73.4 °F 48.2 °F 41% 30.15 in 10.0 mi NNW 4.6 mph - N/A   Partly Cloudy
12:35 PM 73.4 °F 48.2 °F 41% 30.14 in 10.0 mi North 8.1 mph - N/A   Clear
12:55 PM 73.4 °F 50.0 °F 44% 30.14 in 10.0 mi NNE 9.2 mph - N/A   Clear
1:15 PM 73.4 °F 50.0 °F 44% 30.14 in 10.0 mi NNE 6.9 mph - N/A   Partly Cloudy
1:35 PM 73.4 °F 50.0 °F 44% 30.13 in 10.0 mi North 3.5 mph - N/A   Clear
2:15 PM 75.2 °F 50.0 °F 41% 30.12 in 10.0 mi NNW 6.9 mph - N/A   Clear
2:35 PM 75.2 °F 50.0 °F 41% 30.11 in 10.0 mi North 9.2 mph - N/A   Scattered Clouds
2:55 PM 75.2 °F 48.2 °F 38% 30.10 in 10.0 mi WSW 3.5 mph - N/A   Mostly Cloudy
3:15 PM 75.2 °F 48.2 °F 38% 30.09 in 10.0 mi Calm Calm - N/A   Clear
3:35 PM 77.0 °F 48.2 °F 36% 30.08 in 10.0 mi ENE 5.8 mph - N/A   Clear
3:55 PM 77.0 °F 48.2 °F 36% 30.08 in 10.0 mi North 4.6 mph - N/A   Clear
4:15 PM 77.0 °F 46.4 °F 34% 30.07 in 10.0 mi Calm Calm - N/A   Clear
4:55 PM 75.2 °F 48.2 °F 38% 30.06 in 10.0 mi ENE 3.5 mph - N/A   Mostly Cloudy
5:15 PM 75.2 °F 48.2 °F 38% 30.06 in 10.0 mi Calm Calm - N/A   Overcast
5:35 PM 77.0 °F 48.2 °F 36% 30.05 in 10.0 mi Calm Calm - N/A   Overcast
5:55 PM 77.0 °F 48.2 °F 36% 30.05 in 10.0 mi Calm Calm - N/A   Overcast
6:15 PM 75.2 °F 48.2 °F 38% 30.05 in 10.0 mi NNE 3.5 mph - N/A   Partly Cloudy
6:35 PM 75.2 °F 50.0 °F 41% 30.05 in 10.0 mi Calm Calm - N/A   Mostly Cloudy
6:55 PM 75.2 °F 48.2 °F 38% 30.05 in 10.0 mi Calm Calm - N/A   Overcast
7:35 PM 73.4 °F 53.6 °F 50% 30.05 in 10.0 mi NNW 6.9 mph - N/A   Overcast
7:55 PM 71.6 °F 50.0 °F 46% 30.05 in 10.0 mi North 8.1 mph - N/A   Overcast
8:15 PM 69.8 °F 48.2 °F 46% 30.04 in 10.0 mi Calm Calm - N/A   Mostly Cloudy
8:35 PM 69.8 °F 48.2 °F 46% 30.04 in 10.0 mi Calm Calm - N/A   Partly Cloudy
8:55 PM 68.0 °F 48.2 °F 49% 30.04 in 10.0 mi Calm Calm - N/A   Clear
9:15 PM 68.0 °F 48.2 °F 49% 30.03 in 10.0 mi Calm Calm - N/A   Clear
9:55 PM 66.2 °F 48.2 °F 52% 30.03 in 10.0 mi Calm Calm - N/A   Clear
10:15 PM 64.4 °F 51.8 °F 64% 30.04 in 10.0 mi North 3.5 mph - N/A   Scattered Clouds
10:35 PM 64.4 °F 50.0 °F 59% 30.03 in 10.0 mi Calm Calm - N/A   Mostly Cloudy
10:55 PM 64.4 °F 46.4 °F 52% 30.03 in 10.0 mi Calm Calm - N/A   Overcast
11:15 PM 64.4 °F 46.4 °F 52% 30.03 in 10.0 mi North 3.5 mph - N/A   Overcast
11:35 PM 64.4 °F 48.2 °F 56% 30.03 in 10.0 mi Calm Calm - N/A   Overcast
11:55 PM 62.6 °F 51.8 °F 68% 30.02 in 10.0 mi Calm Calm - N/A   Overcast